Погода в Хошимине

Вьетнам     10°46′34″N   106°41′41″E
темп.,
°C
ветер,
м/с
пор.,
м/с
влажн.,
%
обл.,
%
осадки,
мм/ч
давл.,
гПа
погр.,
м
17 августа, ср
ср1701:00+25юз2789100 1.4 1009277
04:00+25юз249022 0.0 1008158
07:00+26юз2485100 0.0 1009272
10:00+31юз356398 0.0 10101221
13:00+31зюз4559100 0.3 10071323
16:00+30юз3664100 0.7 1005675
19:00+28юз37783 1.9 1007380
22:00+26юз37864 2.0 1009250
18 августа, чт
чт1801:00+25юз289043 3.1 1008323
04:00+25зюз269249 1.3 1007251
07:00+26з258724 1.3 1009304
10:00+31з35625 0.0 10091298
13:00+32з455749 0.4 10071607
16:00+31зюз4559100 0.4 1005893
19:00+29юз2470100 0.6 1006267
22:00+27зюз3779100 0.0 1008319
19 августа, пт
пт1901:00+26зюз3783100 0.0 1006316
04:00+26зюз2587100 0.0 1005250
07:00+26з2483100 0.0 1007292
10:00+31з455886 0.0 10081147
13:00+33з455468 0.4 10051657
16:00+32зюз455799 0.7 1003951
19:00+28зюз3675100 3.2 1005380
22:00+28зюз3778100 1.4 1007361
20 августа, сб
сб2001:00+26зюз3886100 1.8 1006338
04:00+26зюз3991100 0.5 1005410
07:00+26зюз378891 0.6 1007463
10:00+31з476384 0.1 10071328
13:00+31з5665100 2.8 10041178
16:00+30зюз4769100 4.4 1003672
19:00+27зюз4982100 9.0 1005374
22:00+26юз31088100 3.6 1007446
21 августа, вс
вс2101:00+26юз3109099 3.6 1005492
04:00+25юз2793100 1.8 1005264
07:00+26зюз21088100 2.0 1006507
10:00+30зюз5870100 2.3 10071249
13:00+31зюз5761100 3.0 10041337
16:00+29юз4870100 2.5 1004704
19:00+27ююз41081100 4.9 1006434
22:00+26юз31086100 0.4 1007420